This demonstration page uses our WeatherBlox Daily Observations layout. Learn more.

Hourly Observations for August 25, 2017

Temp ( °F °C ) Dew Point ( °F °C ) Humidity (%) Winds ( mph kmh ) Pressure ( in mb ) Visibility ( mi km ) Precip ( " mm )
12:15 am 00:15 Clear 71 21.5 59 15.1 67 67 SE 8 13 29.88 1012 10 16.09344 0 0
12:35 am 00:35 Clear 70 21 59 15.1 69 69 SSE 8 13 29.88 1012 10 16.09344 0 0
12:55 am 00:55 Clear 70 21.2 59 15 68 68 SSE 8 13 29.88 1012 10 16.09344 0 0
1:15 am 01:15 Clear 70 21.2 59 15 68 68 SE 8 13 29.88 1012 10 16.09344 0 0
1:35 am 01:35 Clear 71 21.4 59 15 67 67 SE 8 13 29.88 1012 10 16.09344 0 0
1:55 am 01:55 Clear 70 21 59 15.2 70 70 SE 6 9 29.88 1012 10 16.09344 0 0
2:15 am 02:15 Clear 69 20.4 60 15.5 74 74 Calm 29.88 1012 10 16.09344 0 0
2:35 am 02:35 Clear 68 20.1 60 15.5 75 75 SE 3 6 29.88 1012 10 16.09344 0 0
2:55 am 02:55 Partly Cloudy 68 20.1 60 15.7 76 76 SSE 6 9 29.88 1012 10 16.09344 0 0
3:15 am 03:15 Partly Cloudy 68 20.1 60 15.7 76 76 ESE 6 9 29.88 1012 10 16.09344 0 0
3:35 am 03:35 Clear 66 19 60 15.5 80 80 E 7 11 29.91 1013 10 16.09344 0 0
3:55 am 03:55 Clear 66 18.9 60 15.5 81 81 SSE 8 13 29.91 1013 10 16.09344 0 0
4:15 am 04:15 Clear 66 19 60 15.8 82 82 S 9 15 29.91 1013 10 16.09344 0 0
4:35 am 04:35 Clear 67 19.3 61 15.9 81 81 S 9 15 29.91 1013 10 16.09344 0 0
4:55 am 04:55 Clear 67 19.6 61 16 80 80 S 9 15 29.85 1011 10 16.09344 0 0
5:15 am 05:15 Clear 67 19.7 61 16.1 80 80 S 13 20 29.85 1011 10 16.09344 0 0
5:35 am 05:35 Clear 68 19.8 61 16 79 79 S 13 20 29.85 1011 10 16.09344 0 0
5:55 am 05:55 Clear 67 19.5 61 16 80 80 S 9 15 29.85 1011 10 16.09344 0 0
6:15 am 06:15 Clear 66 19 61 16 83 83 SSE 5 7 29.91 1013 10 16.09344 0 0
6:35 am 06:35 Clear 65 18.5 60 15.8 84 84 SSE 5 7 29.91 1013 10 16.09344 0 0
6:55 am 06:55 Clear 65 18.2 61 16 87 87 S 9 15 29.91 1013 10 16.09344 0 0
7:15 am 07:15 Sunny 65 18.3 61 16.1 87 87 S 9 15 29.91 1013 10 16.09344 0 0
7:35 am 07:35 Sunny 65 18.3 61 16.1 87 87 S 8 13 29.91 1013 10 16.09344 0 0
7:55 am 07:55 Sunny 66 19 62 16.5 86 86 S 7 11 29.91 1013 10 16.09344 0 0
8:15 am 08:15 Sunny 67 19.6 62 16.7 83 83 S 7 11 29.88 1012 10 16.09344 0 0
8:35 am 08:35 Sunny 69 20.5 63 17 80 80 S 9 15 29.91 1013 10 16.09344 0 0
8:55 am 08:55 Sunny 69 20.5 63 17.1 81 81 S 9 15 29.91 1013 10 16.09344 0 0
9:15 am 09:15 Sunny 71 21.7 64 17.6 78 78 S 12 19 29.91 1013 10 16.09344 0 0
9:35 am 09:35 Sunny 71 21.9 64 17.7 77 77 S 12 19 29.91 1013 10 16.09344 0 0
9:55 am 09:55 Sunny 73 22.7 64 17.8 74 74 S 13 20 29.91 1013 10 16.09344 0 0
10:15 am 10:15 Sunny 74 23.4 65 18.3 73 73 S 14 22 29.88 1012 10 16.09344 0 0
10:35 am 10:35 Sunny 75 24.1 66 18.8 72 72 S 12 19 29.88 1012 10 16.09344 0 0
10:55 am 10:55 Sunny 76 24.4 66 18.7 71 71 S 15 24 29.88 1012 10 16.09344 0 0
11:15 am 11:15 Sunny 77 25 66 19.1 70 70 S 17 28 29.88 1012 10 16.09344 0 0
11:35 am 11:35 Sunny 76 24.6 66 18.7 70 70 S 14 22 29.88 1012 10 16.09344 0 0
11:55 am 11:55 Sunny 78 25.7 67 19.2 67 67 S 15 24 29.88 1012 10 16.09344 0 0
12:15 pm 12:15 Sunny 79 26.2 66 19.1 65 65 S 18 30 29.88 1012 10 16.09344 0 0
12:35 pm 12:35 Sunny 81 27 67 19.5 64 64 S 17 28 29.85 1011 10 16.09344 0 0
12:55 pm 12:55 Sunny 82 27.5 67 19.6 62 62 S 16 26 29.85 1011 10 16.09344 0 0
1:15 pm 13:15 Sunny 83 28.2 67 19.7 60 60 S 18 30 29.85 1011 10 16.09344 0 0
1:35 pm 13:35 Sunny 84 29 64 18 51 51 S 22 35 29.85 1011 10 16.09344 0 0
1:55 pm 13:55 Sunny 85 29.2 63 17.1 48 48 S 22 35 29.85 1011 10 16.09344 0 0
2:15 pm 14:15 Sunny 85 29.2 64 17.6 50 50 S 20 31 29.85 1011 10 16.09344 0 0
2:35 pm 14:35 Sunny 85 29.5 65 18.5 52 52 S 17 28 29.85 1011 10 16.09344 0 0
2:55 pm 14:55 Sunny 85 29.6 67 19.2 54 54 SSE 17 28 29.83 1010 10 16.09344 0 0
3:15 pm 15:15 Sunny 87 30.5 64 17.8 47 47 S 20 31 29.8 1009 10 16.09344 0 0
3:35 pm 15:35 Sunny 87 30.6 61 16.2 42 42 S 18 30 29.8 1009 10 16.09344 0 0
3:55 pm 15:55 Sunny 88 31 61 16.2 41 41 S 24 39 29.8 1009 10 16.09344 0 0
4:15 pm 16:15 Sunny 88 31 62 16.4 41 41 S 20 31 29.8 1009 10 16.09344 0 0
4:35 pm 16:35 Sunny 87 30.7 60 15.3 39 39 S 20 31 29.8 1009 10 16.09344 0 0
4:55 pm 16:55 Sunny 87 30.7 59 15.1 39 39 SSE 17 28 29.8 1009 10 16.09344 0 0
5:15 pm 17:15 Sunny 87 30.6 60 15.4 40 40 S 14 22 29.8 1009 10 16.09344 0 0
5:35 pm 17:35 Sunny 87 30.4 58 14.6 38 38 S 16 26 29.8 1009 10 16.09344 0 0
5:55 pm 17:55 Sunny 86 30.2 59 15 40 40 S 17 28 29.83 1010 10 16.09344 0 0
6:15 pm 18:15 Sunny 85 29.7 60 15.4 42 42 SSE 18 30 29.83 1010 10 16.09344 0 0
6:35 pm 18:35 Sunny 85 29.5 60 15.3 42 42 SSE 17 28 29.83 1010 10 16.09344 0 0
6:55 pm 18:55 Sunny 84 28.7 61 16.1 46 46 S 14 22 29.83 1010 10 16.09344 0 0
7:15 pm 19:15 Sunny 83 28.2 61 16.1 48 48 SSE 16 26 29.83 1010 10 16.09344 0 0
7:35 pm 19:35 Sunny 82 27.6 61 16.2 50 50 SSE 13 20 29.83 1010 10 16.09344 0 0
7:55 pm 19:55 Sunny 80 26.4 62 16.4 54 54 SSE 13 20 29.85 1011 10 16.09344 0 0
8:15 pm 20:15 Sunny 78 25.7 62 16.5 57 57 SSE 12 19 29.85 1011 10 16.09344 0 0
8:35 pm 20:35 Clear 77 25 62 16.5 59 59 SSE 12 19 29.85 1011 10 16.09344 0 0
8:55 pm 20:55 Clear 76 24.5 61 16.2 60 60 SSE 12 19 29.85 1011 10 16.09344 0 0
9:15 pm 21:15 Clear 75 24.1 61 16.3 62 62 SSE 14 22 29.85 1011 10 16.09344 0 0
9:35 pm 21:35 Clear 75 24.1 61 16.2 61 61 SSE 13 20 29.85 1011 10 16.09344 0 0
9:55 pm 21:55 Clear 75 23.8 61 16.1 62 62 SSE 12 19 29.88 1012 10 16.09344 0 0
10:15 pm 22:15 Clear 75 24 61 16 61 61 SSE 9 15 29.88 1012 10 16.09344 0 0
10:35 pm 22:35 Clear 74 23.6 61 16 63 63 SSE 12 19 29.94 1014 10 16.09344 0 0
10:55 pm 22:55 Clear with Nearby Thunderstorms 75 23.8 61 16 62 62 SSE 13 20 29.91 1013 10 16.09344 0 0
11:15 pm 23:15 Clear 74 23.6 61 16 63 63 S 17 28 29.94 1014 10 16.09344 0 0
11:35 pm 23:35 Clear 74 23.5 61 16.2 64 64 S 17 28 29.94 1014 10 16.09344 0 0
11:55 pm 23:55 Clear 74 23.2 62 16.5 66 66 S 16 26 29.94 1014 10 16.09344 0 0

Powered by AerisWeather